Time,TemperatureF,DewpointF,PressureIn,WindDirection,WindDirectionDegrees,WindSpeedMPH,WindSpeedGustMPH,Humidity,HourlyPrecipIn,Conditions,Clouds,dailyrainin,SoftwareType,DateUTC
2013-03-28 00:00:00,37.3,21.3,30.28,North,360,3.0,10.0,52,0.00,,---,0.00,VWS V14.01,2013-03-28 04:00:00,
2013-03-28 00:05:00,37.2,21.2,30.28,North,360,4.0,6.0,52,0.00,,---,0.00,VWS V14.01,2013-03-28 04:05:00,
2013-03-28 00:10:00,37.1,21.1,30.28,North,360,4.0,6.0,52,0.00,,---,0.00,VWS V14.01,2013-03-28 04:10:00,
2013-03-28 00:16:00,37.0,21.5,30.27,North,360,5.0,6.0,53,0.00,,---,0.00,VWS V14.01,2013-03-28 04:16:00,
2013-03-28 00:21:00,37.0,21.5,30.27,North,360,2.0,9.0,53,0.00,,---,0.00,VWS V14.01,2013-03-28 04:21:00,
2013-03-28 00:26:00,37.0,21.5,30.27,North,360,4.0,9.0,53,0.00,,---,0.00,VWS V14.01,2013-03-28 04:26:00,
2013-03-28 00:31:00,36.9,21.4,30.27,North,360,5.0,9.0,53,0.00,,---,0.00,VWS V14.01,2013-03-28 04:31:00,
2013-03-28 00:36:00,36.8,21.3,30.27,North,360,2.0,9.0,53,0.00,,---,0.00,VWS V14.01,2013-03-28 04:36:00,
2013-03-28 00:41:00,36.7,21.2,30.27,North,360,4.0,9.0,53,0.00,,---,0.00,VWS V14.01,2013-03-28 04:41:00,
2013-03-28 00:46:00,36.6,21.5,30.27,North,360,5.0,9.0,54,0.00,,---,0.00,VWS V14.01,2013-03-28 04:46:00,
2013-03-28 00:52:00,36.4,21.4,30.27,North,360,3.0,9.0,54,0.00,,---,0.00,VWS V14.01,2013-03-28 04:52:00,
2013-03-28 00:57:00,36.4,21.4,30.27,North,360,9.0,9.0,54,0.00,,---,0.00,VWS V14.01,2013-03-28 04:57:00,
2013-03-28 01:02:00,36.4,21.4,30.27,North,360,0.0,9.0,54,0.00,,---,0.00,VWS V14.01,2013-03-28 05:02:00,
2013-03-28 01:07:00,36.2,21.2,30.27,North,360,0.0,4.0,54,0.00,,---,0.00,VWS V14.01,2013-03-28 05:07:00,
2013-03-28 01:12:00,36.1,21.5,30.27,North,360,3.0,4.0,55,0.00,,---,0.00,VWS V14.01,2013-03-28 05:12:00,
2013-03-28 01:17:00,35.7,21.1,30.27,North,360,3.0,4.0,55,0.00,,---,0.00,VWS V14.01,2013-03-28 05:17:00,
2013-03-28 01:22:00,35.5,21.0,30.28,North,360,1.0,4.0,55,0.00,,---,0.00,VWS V14.01,2013-03-28 05:22:00,
2013-03-28 01:27:00,35.4,21.3,30.27,North,360,2.0,4.0,56,0.00,,---,0.00,VWS V14.01,2013-03-28 05:27:00,
2013-03-28 01:32:00,35.3,21.2,30.27,North,360,1.0,4.0,56,0.00,,---,0.00,VWS V14.01,2013-03-28 05:32:00,
2013-03-28 01:37:00,35.2,21.1,30.27,North,360,2.0,4.0,56,0.00,,---,0.00,VWS V14.01,2013-03-28 05:37:00,
2013-03-28 01:42:00,35.2,21.1,30.27,North,360,3.0,4.0,56,0.00,,---,0.00,VWS V14.01,2013-03-28 05:42:00,
2013-03-28 01:47:00,35.2,21.1,30.28,North,360,2.0,4.0,56,0.00,,---,0.00,VWS V14.01,2013-03-28 05:47:00,
2013-03-28 01:52:00,35.1,21.0,30.27,North,360,4.0,4.0,56,0.00,,---,0.00,VWS V14.01,2013-03-28 05:52:00,
2013-03-28 01:58:00,35.2,21.1,30.27,North,360,4.0,4.0,56,0.00,,---,0.00,VWS V14.01,2013-03-28 05:58:00,
2013-03-28 02:03:00,35.3,21.2,30.27,North,360,4.0,4.0,56,0.00,,---,0.00,VWS V14.01,2013-03-28 06:03:00,
2013-03-28 02:08:00,35.3,21.2,30.27,North,360,2.0,5.0,56,0.00,,---,0.00,VWS V14.01,2013-03-28 06:08:00,
2013-03-28 02:13:00,35.1,21.0,30.27,North,360,2.0,5.0,56,0.00,,---,0.00,VWS V14.01,2013-03-28 06:13:00,
2013-03-28 02:18:00,34.9,20.8,30.27,North,360,4.0,5.0,56,0.00,,---,0.00,VWS V14.01,2013-03-28 06:18:00,
2013-03-28 02:23:00,34.7,21.0,30.27,North,360,2.0,5.0,57,0.00,,---,0.00,VWS V14.01,2013-03-28 06:23:00,
2013-03-28 02:28:00,34.6,21.0,30.27,North,360,2.0,5.0,57,0.00,,---,0.00,VWS V14.01,2013-03-28 06:28:00,
2013-03-28 02:33:00,34.6,21.0,30.27,North,360,2.0,5.0,57,0.00,,---,0.00,VWS V14.01,2013-03-28 06:33:00,
2013-03-28 02:38:00,34.5,20.9,30.27,North,360,3.0,5.0,57,0.00,,---,0.00,VWS V14.01,2013-03-28 06:38:00,
2013-03-28 02:43:00,34.5,20.9,30.26,North,360,3.0,5.0,57,0.00,,---,0.00,VWS V14.01,2013-03-28 06:43:00,
2013-03-28 02:48:00,34.5,20.9,30.26,North,360,3.0,5.0,57,0.00,,---,0.00,VWS V14.01,2013-03-28 06:48:00,
2013-03-28 02:53:00,34.2,20.6,30.26,North,360,3.0,5.0,57,0.00,,---,0.00,VWS V14.01,2013-03-28 06:53:00,
2013-03-28 02:58:00,33.8,20.6,30.26,North,360,3.0,5.0,58,0.00,,---,0.00,VWS V14.01,2013-03-28 06:58:00,
2013-03-28 03:03:00,33.6,20.8,30.26,North,360,5.0,6.0,59,0.00,,---,0.00,VWS V14.01,2013-03-28 07:03:00,
2013-03-28 03:08:00,33.6,20.8,30.26,North,360,4.0,7.0,59,0.00,,---,0.00,VWS V14.01,2013-03-28 07:08:00,
2013-03-28 03:13:00,33.6,20.8,30.26,North,360,5.0,7.0,59,0.00,,---,0.00,VWS V14.01,2013-03-28 07:13:00,
2013-03-28 03:18:00,33.6,20.8,30.26,North,360,3.0,7.0,59,0.00,,---,0.00,VWS V14.01,2013-03-28 07:18:00,
2013-03-28 03:23:00,33.6,20.8,30.26,North,360,3.0,7.0,59,0.00,,---,0.00,VWS V14.01,2013-03-28 07:23:00,
2013-03-28 03:29:00,33.7,20.9,30.26,North,360,4.0,7.0,59,0.00,,---,0.00,VWS V14.01,2013-03-28 07:29:00,
2013-03-28 03:34:00,33.8,20.6,30.26,North,360,3.0,7.0,58,0.00,,---,0.00,VWS V14.01,2013-03-28 07:34:00,
2013-03-28 03:39:00,33.7,20.5,30.26,North,360,3.0,7.0,58,0.00,,---,0.00,VWS V14.01,2013-03-28 07:39:00,
2013-03-28 03:44:00,33.6,20.4,30.26,North,360,3.0,7.0,58,0.00,,---,0.00,VWS V14.01,2013-03-28 07:44:00,
2013-03-28 03:49:00,33.5,20.7,30.26,North,360,2.0,7.0,59,0.00,,---,0.00,VWS V14.01,2013-03-28 07:49:00,
2013-03-28 03:54:00,33.4,20.6,30.25,North,360,3.0,7.0,59,0.00,,---,0.00,VWS V14.01,2013-03-28 07:54:00,
2013-03-28 03:59:00,33.4,20.6,30.25,North,360,4.0,7.0,59,0.00,,---,0.00,VWS V14.01,2013-03-28 07:59:00,
2013-03-28 04:04:00,33.4,20.6,30.25,North,360,3.0,4.0,59,0.00,,---,0.00,VWS V14.01,2013-03-28 08:04:00,
2013-03-28 04:09:00,33.4,20.6,30.25,North,360,3.0,4.0,59,0.00,,---,0.00,VWS V14.01,2013-03-28 08:09:00,
2013-03-28 04:14:00,33.2,20.4,30.25,North,360,3.0,4.0,59,0.00,,---,0.00,VWS V14.01,2013-03-28 08:14:00,
2013-03-28 04:20:00,33.1,20.7,30.25,North,360,1.0,4.0,60,0.00,,---,0.00,VWS V14.01,2013-03-28 08:20:00,
2013-03-28 04:25:00,33.0,20.6,30.25,North,360,2.0,4.0,60,0.00,,---,0.00,VWS V14.01,2013-03-28 08:25:00,
2013-03-28 04:30:00,32.9,20.5,30.25,North,360,3.0,4.0,60,0.00,,---,0.00,VWS V14.01,2013-03-28 08:30:00,
2013-03-28 04:35:00,32.8,20.5,30.25,North,360,3.0,4.0,60,0.00,,---,0.00,VWS V14.01,2013-03-28 08:35:00,
2013-03-28 04:40:00,32.8,20.5,30.25,North,360,3.0,5.0,60,0.00,,---,0.00,VWS V14.01,2013-03-28 08:40:00,
2013-03-28 04:45:00,32.8,20.5,30.25,North,360,3.0,5.0,60,0.00,,---,0.00,VWS V14.01,2013-03-28 08:45:00,
2013-03-28 04:50:00,32.8,20.9,30.25,North,360,3.0,5.0,61,0.00,,---,0.00,VWS V14.01,2013-03-28 08:50:00,
2013-03-28 04:55:00,32.8,20.5,30.25,North,360,4.0,5.0,60,0.00,,---,0.00,VWS V14.01,2013-03-28 08:55:00,
2013-03-28 05:00:00,32.7,20.8,30.25,North,360,2.0,5.0,61,0.00,,---,0.00,VWS V14.01,2013-03-28 09:00:00,
2013-03-28 05:05:00,32.6,20.7,30.25,North,360,2.0,3.0,61,0.00,,---,0.00,VWS V14.01,2013-03-28 09:05:00,
2013-03-28 05:10:00,32.5,20.6,30.25,North,360,3.0,3.0,61,0.00,,---,0.00,VWS V14.01,2013-03-28 09:10:00,
2013-03-28 05:15:00,32.4,20.5,30.25,North,360,2.0,3.0,61,0.00,,---,0.00,VWS V14.01,2013-03-28 09:15:00,
2013-03-28 05:20:00,32.3,20.4,30.25,North,360,3.0,3.0,61,0.00,,---,0.00,VWS V14.01,2013-03-28 09:20:00,
2013-03-28 05:25:00,32.1,20.6,30.25,North,360,1.0,4.0,62,0.00,,---,0.00,VWS V14.01,2013-03-28 09:25:00,
2013-03-28 05:30:00,31.9,20.4,30.25,North,360,4.0,5.0,62,0.00,,---,0.00,VWS V14.01,2013-03-28 09:30:00,
2013-03-28 05:35:00,31.9,20.8,30.25,North,360,3.0,6.0,63,0.00,,---,0.00,VWS V14.01,2013-03-28 09:35:00,
2013-03-28 05:41:00,31.9,20.8,30.25,North,360,5.0,6.0,63,0.00,,---,0.00,VWS V14.01,2013-03-28 09:41:00,
2013-03-28 05:46:00,31.9,20.8,30.26,North,360,3.0,6.0,63,0.00,,---,0.00,VWS V14.01,2013-03-28 09:46:00,
2013-03-28 05:51:00,31.7,20.6,30.25,North,360,3.0,6.0,63,0.00,,---,0.00,VWS V14.01,2013-03-28 09:51:00,
2013-03-28 05:56:00,31.6,20.5,30.25,North,360,2.0,6.0,63,0.00,,---,0.00,VWS V14.01,2013-03-28 09:56:00,
2013-03-28 06:01:00,31.6,20.5,30.25,North,360,0.0,6.0,63,0.00,,---,0.00,VWS V14.01,2013-03-28 10:01:00,
2013-03-28 06:06:00,31.5,20.7,30.25,North,360,2.0,3.0,64,0.00,,---,0.00,VWS V14.01,2013-03-28 10:06:00,
2013-03-28 06:11:00,31.4,20.6,30.25,North,360,3.0,4.0,64,0.00,,---,0.00,VWS V14.01,2013-03-28 10:11:00,
2013-03-28 06:16:00,31.4,20.6,30.25,North,360,2.0,4.0,64,0.00,,---,0.00,VWS V14.01,2013-03-28 10:16:00,
2013-03-28 06:21:00,31.3,20.5,30.25,North,360,2.0,4.0,64,0.00,,---,0.00,VWS V14.01,2013-03-28 10:21:00,
2013-03-28 06:26:00,31.2,20.5,30.25,North,360,1.0,4.0,64,0.00,,---,0.00,VWS V14.01,2013-03-28 10:26:00,
2013-03-28 06:31:00,31.2,20.8,30.26,North,360,0.0,4.0,65,0.00,,---,0.00,VWS V14.01,2013-03-28 10:31:00,
2013-03-28 06:37:00,31.1,20.7,30.25,North,360,0.0,4.0,65,0.00,,---,0.00,VWS V14.01,2013-03-28 10:37:00,
2013-03-28 06:42:00,31.0,20.6,30.25,North,360,0.0,4.0,65,0.00,,---,0.00,VWS V14.01,2013-03-28 10:42:00,
2013-03-28 06:47:00,30.9,20.9,30.26,North,360,0.0,4.0,66,0.00,,---,0.00,VWS V14.01,2013-03-28 10:47:00,
2013-03-28 06:52:00,30.8,20.8,30.26,North,360,0.0,4.0,66,0.00,,---,0.00,VWS V14.01,2013-03-28 10:52:00,
2013-03-28 06:57:00,30.8,20.8,30.26,North,360,4.0,4.0,66,0.00,,---,0.00,VWS V14.01,2013-03-28 10:57:00,
2013-03-28 07:02:00,30.7,20.7,30.26,North,360,2.0,4.0,66,0.00,,---,0.00,VWS V14.01,2013-03-28 11:02:00,
2013-03-28 07:07:00,30.7,20.7,30.27,North,360,3.0,4.0,66,0.00,,---,0.00,VWS V14.01,2013-03-28 11:07:00,
2013-03-28 07:12:00,30.8,20.8,30.27,North,360,4.0,4.0,66,0.00,,---,0.00,VWS V14.01,2013-03-28 11:12:00,
2013-03-28 07:17:00,30.9,20.9,30.27,North,360,4.0,5.0,66,0.00,,---,0.00,VWS V14.01,2013-03-28 11:17:00,
2013-03-28 07:22:00,31.2,20.8,30.26,North,360,1.0,5.0,65,0.00,,---,0.00,VWS V14.01,2013-03-28 11:22:00,
2013-03-28 07:27:00,31.4,21.0,30.27,North,360,4.0,5.0,65,0.00,,---,0.00,VWS V14.01,2013-03-28 11:27:00,
2013-03-28 07:32:00,31.5,21.1,30.27,North,360,5.0,7.0,65,0.00,,---,0.00,VWS V14.01,2013-03-28 11:32:00,
2013-03-28 07:37:00,31.4,21.0,30.27,North,360,4.0,7.0,65,0.00,,---,0.00,VWS V14.01,2013-03-28 11:37:00,
2013-03-28 07:43:00,31.7,21.3,30.27,North,360,4.0,7.0,65,0.00,,---,0.00,VWS V14.01,2013-03-28 11:43:00,
2013-03-28 07:48:00,32.0,21.2,30.28,North,360,2.0,9.0,64,0.00,,---,0.00,VWS V14.01,2013-03-28 11:48:00,
2013-03-28 07:53:00,32.3,21.5,30.28,North,360,5.0,9.0,64,0.00,,---,0.00,VWS V14.01,2013-03-28 11:53:00,
2013-03-28 07:58:00,32.4,21.2,30.28,North,360,5.0,9.0,63,0.00,,---,0.00,VWS V14.01,2013-03-28 11:58:00,
2013-03-28 08:03:00,32.6,21.4,30.28,North,360,3.0,4.0,63,0.00,,---,0.00,VWS V14.01,2013-03-28 12:03:00,
2013-03-28 08:08:00,32.7,21.5,30.28,North,360,5.0,6.0,63,0.00,,---,0.00,VWS V14.01,2013-03-28 12:08:00,
2013-03-28 08:13:00,32.9,21.7,30.29,North,360,5.0,7.0,63,0.00,,---,0.00,VWS V14.01,2013-03-28 12:13:00,
2013-03-28 08:18:00,33.2,22.0,30.29,North,360,6.0,9.0,63,0.00,,---,0.00,VWS V14.01,2013-03-28 12:18:00,
2013-03-28 08:23:00,33.5,22.3,30.29,North,360,9.0,10.0,63,0.00,,---,0.00,VWS V14.01,2013-03-28 12:23:00,
2013-03-28 08:28:00,33.6,22.0,30.29,North,360,8.0,10.0,62,0.00,,---,0.00,VWS V14.01,2013-03-28 12:28:00,
2013-03-28 08:33:00,33.9,22.3,30.29,North,360,9.0,11.0,62,0.00,,---,0.00,VWS V14.01,2013-03-28 12:33:00,
2013-03-28 08:38:00,34.4,22.7,30.29,North,360,5.0,11.0,62,0.00,,---,0.00,VWS V14.01,2013-03-28 12:38:00,
2013-03-28 08:43:00,35.0,22.9,30.29,North,360,9.0,11.0,61,0.00,,---,0.00,VWS V14.01,2013-03-28 12:43:00,
2013-03-28 08:48:00,35.5,23.4,30.30,North,360,8.0,11.0,61,0.00,,---,0.00,VWS V14.01,2013-03-28 12:48:00,
2013-03-28 08:53:00,36.2,23.7,30.30,North,360,5.0,11.0,60,0.00,,---,0.00,VWS V14.01,2013-03-28 12:53:00,
2013-03-28 08:58:00,37.0,24.4,30.30,North,360,6.0,11.0,60,0.00,,---,0.00,VWS V14.01,2013-03-28 12:58:00,
2013-03-28 09:04:00,37.9,24.5,30.30,North,360,5.0,11.0,58,0.00,,---,0.00,VWS V14.01,2013-03-28 13:04:00,
2013-03-28 09:09:00,38.6,24.7,30.30,North,360,8.0,12.0,57,0.00,,---,0.00,VWS V14.01,2013-03-28 13:09:00,
2013-03-28 09:14:00,39.2,25.3,30.30,North,360,7.0,12.0,57,0.00,,---,0.00,VWS V14.01,2013-03-28 13:14:00,
2013-03-28 09:19:00,39.7,25.3,30.30,North,360,6.0,12.0,56,0.00,,---,0.00,VWS V14.01,2013-03-28 13:19:00,
2013-03-28 09:24:00,39.6,24.8,30.30,North,360,7.0,14.0,55,0.00,,---,0.00,VWS V14.01,2013-03-28 13:24:00,
2013-03-28 09:29:00,39.6,24.8,30.30,North,360,3.0,14.0,55,0.00,,---,0.00,VWS V14.01,2013-03-28 13:29:00,
2013-03-28 09:34:00,39.6,24.8,30.30,North,360,7.0,14.0,55,0.00,,---,0.00,VWS V14.01,2013-03-28 13:34:00,
2013-03-28 09:39:00,39.1,24.3,30.30,North,360,13.0,16.0,55,0.00,,---,0.00,VWS V14.01,2013-03-28 13:39:00,
2013-03-28 09:44:00,38.5,23.8,30.30,North,360,12.0,16.0,55,0.00,,---,0.00,VWS V14.01,2013-03-28 13:44:00,
2013-03-28 09:49:00,38.6,24.3,30.30,North,360,14.0,16.0,56,0.00,,---,0.00,VWS V14.01,2013-03-28 13:49:00,
2013-03-28 09:54:00,39.0,24.6,30.30,North,360,9.0,16.0,56,0.00,,---,0.00,VWS V14.01,2013-03-28 13:54:00,
2013-03-28 09:59:00,39.0,24.2,30.30,North,360,8.0,16.0,55,0.00,,---,0.00,VWS V14.01,2013-03-28 13:59:00,
2013-03-28 10:04:00,39.4,24.6,30.30,North,360,2.0,9.0,55,0.00,,---,0.00,VWS V14.01,2013-03-28 14:04:00,
2013-03-28 10:09:00,40.2,24.9,30.30,North,360,11.0,16.0,54,0.00,,---,0.00,VWS V14.01,2013-03-28 14:09:00,
2013-03-28 10:14:00,40.3,24.5,30.30,North,360,4.0,16.0,53,0.00,,---,0.00,VWS V14.01,2013-03-28 14:14:00,
2013-03-28 10:19:00,40.9,24.6,30.30,North,360,2.0,20.0,52,0.00,,---,0.00,VWS V14.01,2013-03-28 14:19:00,
2013-03-28 10:24:00,41.1,24.4,30.30,North,360,11.0,20.0,51,0.00,,---,0.00,VWS V14.01,2013-03-28 14:24:00,
2013-03-28 10:29:00,41.3,24.1,30.30,North,360,12.0,20.0,50,0.00,,---,0.00,VWS V14.01,2013-03-28 14:29:00,
2013-03-28 10:35:00,41.2,23.5,30.31,North,360,6.0,20.0,49,0.00,,---,0.00,VWS V14.01,2013-03-28 14:35:00,
2013-03-28 10:40:00,41.0,23.8,30.31,North,360,12.0,20.0,50,0.00,,---,0.00,VWS V14.01,2013-03-28 14:40:00,
2013-03-28 10:45:00,41.1,23.9,30.31,North,360,7.0,22.0,50,0.00,,---,0.00,VWS V14.01,2013-03-28 14:45:00,
2013-03-28 10:50:00,41.7,24.0,30.30,North,360,17.0,22.0,49,0.00,,---,0.00,VWS V14.01,2013-03-28 14:50:00,
2013-03-28 10:55:00,41.9,24.1,30.31,North,360,5.0,22.0,49,0.00,,---,0.00,VWS V14.01,2013-03-28 14:55:00,
2013-03-28 11:00:00,42.1,24.3,30.30,North,360,9.0,22.0,49,0.00,,---,0.00,VWS V14.01,2013-03-28 15:00:00,
2013-03-28 11:05:00,42.3,24.5,30.31,North,360,16.0,19.0,49,0.00,,---,0.00,VWS V14.01,2013-03-28 15:05:00,
2013-03-28 11:10:00,42.4,24.6,30.30,North,360,8.0,19.0,49,0.00,,---,0.00,VWS V14.01,2013-03-28 15:10:00,
2013-03-28 11:15:00,42.9,24.1,30.30,North,360,7.0,20.0,47,0.00,,---,0.00,VWS V14.01,2013-03-28 15:15:00,
2013-03-28 11:20:00,43.0,24.2,30.30,North,360,16.0,20.0,47,0.00,,---,0.00,VWS V14.01,2013-03-28 15:20:00,
2013-03-28 11:25:00,43.1,24.3,30.30,North,360,2.0,20.0,47,0.00,,---,0.00,VWS V14.01,2013-03-28 15:25:00,
2013-03-28 11:30:00,43.0,24.2,30.30,North,360,7.0,20.0,47,0.00,,---,0.00,VWS V14.01,2013-03-28 15:30:00,
2013-03-28 11:35:00,43.2,24.4,30.30,North,360,14.0,22.0,47,0.00,,---,0.00,VWS V14.01,2013-03-28 15:35:00,
2013-03-28 11:40:00,43.0,24.2,30.29,North,360,3.0,22.0,47,0.00,,---,0.00,VWS V14.01,2013-03-28 15:40:00,
2013-03-28 11:45:00,43.8,24.9,30.29,North,360,18.0,22.0,47,0.00,,---,0.00,VWS V14.01,2013-03-28 15:45:00,
2013-03-28 11:50:00,43.6,23.7,30.30,North,360,12.0,23.0,45,0.00,,---,0.00,VWS V14.01,2013-03-28 15:50:00,
2013-03-28 11:55:00,43.3,23.9,30.30,North,360,14.0,23.0,46,0.00,,---,0.00,VWS V14.01,2013-03-28 15:55:00,
2013-03-28 12:00:00,43.8,23.9,30.30,North,360,6.0,23.0,45,0.00,,---,0.00,VWS V14.01,2013-03-28 16:00:00,
2013-03-28 12:06:00,44.3,24.3,30.29,North,360,5.0,12.0,45,0.00,,---,0.00,VWS V14.01,2013-03-28 16:06:00,
2013-03-28 12:11:00,44.6,24.0,30.29,North,360,2.0,15.0,44,0.00,,---,0.00,VWS V14.01,2013-03-28 16:11:00,
2013-03-28 12:16:00,44.8,23.7,30.29,North,360,10.0,18.0,43,0.00,,---,0.00,VWS V14.01,2013-03-28 16:16:00,
2013-03-28 12:21:00,45.4,23.7,30.28,North,360,10.0,18.0,42,0.00,,---,0.00,VWS V14.01,2013-03-28 16:21:00,
2013-03-28 12:26:00,45.2,23.5,30.28,North,360,11.0,18.0,42,0.00,,---,0.00,VWS V14.01,2013-03-28 16:26:00,
2013-03-28 12:31:00,45.5,23.8,30.28,North,360,17.0,23.0,42,0.00,,---,0.00,VWS V14.01,2013-03-28 16:31:00,
2013-03-28 12:36:00,45.6,23.9,30.28,North,360,9.0,23.0,42,0.00,,---,0.00,VWS V14.01,2013-03-28 16:36:00,
2013-03-28 12:41:00,46.0,24.2,30.28,North,360,17.0,23.0,42,0.00,,---,0.00,VWS V14.01,2013-03-28 16:41:00,
2013-03-28 12:47:00,45.6,24.4,30.27,North,360,11.0,23.0,43,0.00,,---,0.00,VWS V14.01,2013-03-28 16:47:00,
2013-03-28 12:52:00,45.8,24.0,30.27,North,360,4.0,23.0,42,0.00,,---,0.00,VWS V14.01,2013-03-28 16:52:00,
2013-03-28 12:57:00,46.5,24.1,30.27,North,360,10.0,24.0,41,0.00,,---,0.00,VWS V14.01,2013-03-28 16:57:00,
2013-03-28 13:02:00,46.2,22.6,30.27,North,360,12.0,24.0,39,0.00,,---,0.00,VWS V14.01,2013-03-28 17:02:00,
2013-03-28 13:07:00,46.1,23.7,30.27,North,360,17.0,17.0,41,0.00,,---,0.00,VWS V14.01,2013-03-28 17:07:00,
2013-03-28 13:12:00,46.2,23.8,30.27,North,360,10.0,19.0,41,0.00,,---,0.00,VWS V14.01,2013-03-28 17:12:00,
2013-03-28 13:17:00,46.4,23.4,30.26,North,360,14.0,24.0,40,0.00,,---,0.00,VWS V14.01,2013-03-28 17:17:00,
2013-03-28 13:22:00,47.5,23.8,30.27,North,360,17.0,25.0,39,0.00,,---,0.00,VWS V14.01,2013-03-28 17:22:00,
2013-03-28 13:27:00,47.4,24.3,30.26,North,360,6.0,25.0,40,0.00,,---,0.00,VWS V14.01,2013-03-28 17:27:00,
2013-03-28 13:32:00,47.7,24.0,30.26,North,360,14.0,25.0,39,0.00,,---,0.00,VWS V14.01,2013-03-28 17:32:00,
2013-03-28 13:37:00,47.5,23.8,30.26,North,360,17.0,25.0,39,0.00,,---,0.00,VWS V14.01,2013-03-28 17:37:00,
2013-03-28 13:42:00,47.4,24.3,30.26,North,360,5.0,25.0,40,0.00,,---,0.00,VWS V14.01,2013-03-28 17:42:00,
2013-03-28 13:47:00,48.5,24.1,30.26,North,360,9.0,25.0,38,0.00,,---,0.00,VWS V14.01,2013-03-28 17:47:00,
2013-03-28 13:53:00,48.4,24.0,30.26,North,360,10.0,25.0,38,0.00,,---,0.00,VWS V14.01,2013-03-28 17:53:00,
2013-03-28 13:58:00,48.9,24.4,30.25,North,360,13.0,25.0,38,0.00,,---,0.00,VWS V14.01,2013-03-28 17:58:00,
2013-03-28 14:03:00,48.7,24.2,30.25,North,360,9.0,11.0,38,0.00,,---,0.00,VWS V14.01,2013-03-28 18:03:00,
2013-03-28 14:08:00,49.5,25.0,30.25,North,360,10.0,21.0,38,0.00,,---,0.00,VWS V14.01,2013-03-28 18:08:00,